TimeEST,TemperatureF,Dew PointF,Humidity,Sea Level PressureIn,VisibilityMPH,Wind Direction,Wind SpeedMPH,Gust SpeedMPH,PrecipitationIn,Events,Conditions,WindDirDegrees,DateUTC
12:15 AM,28.0,23.0,81,29.96,10.0,SW,6.9,-,N/A,,Clear,220,2012-12-23 05:15:00
12:35 AM,27.5,23.0,83,29.95,10.0,SSW,5.8,-,N/A,,Clear,210,2012-12-23 05:35:00
12:55 AM,27.1,23.0,84,29.94,10.0,SSW,5.8,-,N/A,,Clear,210,2012-12-23 05:55:00
1:15 AM,27.0,22.8,84,29.93,10.0,SSW,6.9,-,N/A,,Clear,210,2012-12-23 06:15:00
1:35 AM,26.2,22.1,84,29.93,10.0,SSW,4.6,-,N/A,,Clear,210,2012-12-23 06:35:00
1:54 AM,25.7,21.6,84,29.93,10.0,SSW,4.6,-,N/A,,Clear,210,2012-12-23 06:54:00
2:15 AM,25.7,21.0,82,29.92,10.0,SSW,5.8,-,N/A,,Clear,210,2012-12-23 07:15:00
2:35 AM,25.5,20.3,81,29.92,10.0,SSW,6.9,-,N/A,,Clear,210,2012-12-23 07:35:00
2:55 AM,25.2,19.9,81,29.91,10.0,SW,3.5,-,N/A,,Clear,220,2012-12-23 07:55:00
3:15 AM,25.0,19.8,81,29.90,10.0,SW,3.5,-,N/A,,Clear,220,2012-12-23 08:15:00
3:35 AM,24.4,19.4,81,29.90,10.0,Calm,Calm,-,N/A,,Clear,0,2012-12-23 08:35:00
3:55 AM,23.7,19.0,82,29.90,10.0,SSW,3.5,-,N/A,,Clear,210,2012-12-23 08:55:00
4:15 AM,23.4,19.0,84,29.89,10.0,Calm,Calm,-,N/A,,Clear,0,2012-12-23 09:15:00
4:35 AM,23.0,18.9,84,29.88,10.0,Calm,Calm,-,N/A,,Clear,0,2012-12-23 09:35:00
4:55 AM,22.8,18.5,83,29.88,10.0,SSW,3.5,-,N/A,,Clear,210,2012-12-23 09:55:00
5:15 AM,23.0,18.7,84,29.87,10.0,SSW,3.5,-,N/A,,Clear,210,2012-12-23 10:15:00
5:35 AM,23.7,19.2,83,29.87,10.0,SSW,4.6,-,N/A,,Clear,210,2012-12-23 10:35:00
5:55 AM,23.7,19.0,82,29.87,10.0,SW,4.6,-,N/A,,Clear,220,2012-12-23 10:55:00
6:15 AM,23.7,19.2,83,29.88,10.0,WSW,3.5,-,N/A,,Clear,240,2012-12-23 11:15:00
6:35 AM,23.4,18.9,83,29.88,10.0,WSW,3.5,-,N/A,,Clear,240,2012-12-23 11:35:00
6:55 AM,22.6,18.1,83,29.89,10.0,West,3.5,-,N/A,,Clear,260,2012-12-23 11:55:00
7:14 AM,22.1,18.3,85,29.89,10.0,Calm,Calm,-,N/A,,Clear,0,2012-12-23 12:14:00
7:35 AM,22.1,18.0,84,29.90,10.0,Calm,Calm,-,N/A,,Clear,0,2012-12-23 12:35:00
7:55 AM,22.1,18.3,85,29.89,10.0,Calm,Calm,-,N/A,,Clear,0,2012-12-23 12:55:00
8:15 AM,21.6,17.8,85,29.90,7.0,West,3.5,-,N/A,,Clear,260,2012-12-23 13:15:00
8:35 AM,21.6,17.8,85,29.91,7.0,West,3.5,-,N/A,,Clear,260,2012-12-23 13:35:00
8:55 AM,22.6,18.5,84,29.91,7.0,West,4.6,-,N/A,,Clear,270,2012-12-23 13:55:00
9:15 AM,24.4,20.1,84,29.91,7.0,West,5.8,-,N/A,,Clear,260,2012-12-23 14:15:00
9:35 AM,26.2,21.0,81,29.91,7.0,West,5.8,-,N/A,,Clear,270,2012-12-23 14:35:00
9:55 AM,27.5,21.7,79,29.92,7.0,West,5.8,-,N/A,,Clear,260,2012-12-23 14:55:00
10:15 AM,28.6,22.1,77,29.92,10.0,West,5.8,-,N/A,,Scattered Clouds,260,2012-12-23 15:15:00
10:35 AM,30.4,23.0,74,29.92,10.0,West,4.6,-,N/A,,Mostly Cloudy,270,2012-12-23 15:35:00
10:55 AM,31.1,23.0,72,29.92,10.0,WNW,6.9,-,N/A,,Overcast,290,2012-12-23 15:55:00
11:15 AM,31.1,23.2,72,29.93,10.0,West,6.9,-,N/A,,Overcast,280,2012-12-23 16:15:00
11:35 AM,32.0,24.6,74,29.94,10.0,West,4.6,-,N/A,,Overcast,280,2012-12-23 16:35:00
12:15 PM,32.2,25.0,75,29.94,10.0,NW,8.1,-,N/A,,Overcast,310,2012-12-23 17:15:00
12:35 PM,32.2,25.2,75,29.94,10.0,WNW,9.2,-,N/A,,Overcast,300,2012-12-23 17:35:00
1:15 PM,32.9,23.0,67,29.93,10.0,WNW,9.2,-,N/A,,Overcast,300,2012-12-23 18:15:00
1:35 PM,32.9,23.0,67,29.92,10.0,NNW,5.8,-,N/A,,Overcast,340,2012-12-23 18:35:00
1:55 PM,32.9,23.4,68,29.93,10.0,NW,6.9,-,N/A,,Overcast,310,2012-12-23 18:55:00
2:15 PM,33.3,23.7,68,29.93,10.0,NW,6.9,-,N/A,,Overcast,320,2012-12-23 19:15:00
2:35 PM,32.9,23.9,69,29.93,10.0,NW,9.2,-,N/A,,Overcast,320,2012-12-23 19:35:00
2:55 PM,32.9,23.5,68,29.93,10.0,NW,9.2,-,N/A,,Overcast,320,2012-12-23 19:55:00
3:15 PM,32.4,22.3,66,29.93,10.0,NW,4.6,-,N/A,,Overcast,320,2012-12-23 20:15:00
3:34 PM,32.5,21.7,64,29.94,10.0,NW,8.1,-,N/A,,Overcast,320,2012-12-23 20:34:00
3:55 PM,32.4,20.8,63,29.94,10.0,NW,5.8,-,N/A,,Overcast,310,2012-12-23 20:55:00
4:15 PM,32.2,21.2,64,29.96,10.0,NW,8.1,-,N/A,,Overcast,320,2012-12-23 21:15:00
4:35 PM,32.0,20.3,62,29.96,10.0,WNW,9.2,-,N/A,,Overcast,300,2012-12-23 21:35:00
4:55 PM,32.0,20.1,62,29.97,10.0,NNW,5.8,-,N/A,,Overcast,330,2012-12-23 21:55:00
5:15 PM,32.0,20.5,63,29.98,10.0,NW,3.5,-,N/A,,Overcast,310,2012-12-23 22:15:00
5:35 PM,32.0,20.7,63,29.99,10.0,Calm,Calm,-,N/A,,Overcast,0,2012-12-23 22:35:00
5:55 PM,31.8,21.4,65,29.99,10.0,NNW,4.6,-,N/A,,Overcast,340,2012-12-23 22:55:00
6:15 PM,31.6,20.3,63,29.99,10.0,Calm,Calm,-,N/A,,Overcast,0,2012-12-23 23:15:00
6:35 PM,31.5,20.8,65,29.99,10.0,Calm,Calm,-,N/A,,Overcast,0,2012-12-23 23:35:00
6:55 PM,31.1,20.7,65,30.00,10.0,NNW,4.6,-,N/A,,Overcast,340,2012-12-23 23:55:00
7:14 PM,31.3,21.0,66,30.01,10.0,Calm,Calm,-,N/A,,Overcast,0,2012-12-24 00:14:00
7:35 PM,31.1,19.2,61,30.02,10.0,NW,4.6,-,N/A,,Overcast,310,2012-12-24 00:35:00
7:55 PM,31.1,18.5,60,30.02,10.0,NW,5.8,-,N/A,,Overcast,320,2012-12-24 00:55:00
8:14 PM,31.1,18.7,60,30.02,10.0,NNW,5.8,-,N/A,,Overcast,330,2012-12-24 01:14:00
8:35 PM,30.2,20.1,66,30.03,10.0,North,3.5,-,N/A,,Overcast,360,2012-12-24 01:35:00
8:55 PM,29.8,20.3,68,30.03,10.0,Calm,Calm,-,N/A,,Overcast,0,2012-12-24 01:55:00
9:15 PM,29.3,20.3,69,30.03,10.0,Calm,Calm,-,N/A,,Overcast,0,2012-12-24 02:15:00
9:55 PM,27.9,19.0,69,30.03,10.0,North,4.6,-,N/A,,Overcast,360,2012-12-24 02:55:00
10:15 PM,27.3,18.0,68,30.03,10.0,Calm,Calm,-,N/A,,Overcast,0,2012-12-24 03:15:00
10:35 PM,26.2,17.6,70,30.02,10.0,Calm,Calm,-,N/A,,Overcast,0,2012-12-24 03:35:00
10:55 PM,25.7,17.6,71,30.02,10.0,Calm,Calm,-,N/A,,Overcast,0,2012-12-24 03:55:00
11:15 PM,25.2,17.8,74,30.01,10.0,Calm,Calm,-,N/A,,Mostly Cloudy,0,2012-12-24 04:15:00
11:35 PM,22.8,17.1,79,30.01,10.0,Calm,Calm,-,N/A,,Scattered Clouds,0,2012-12-24 04:35:00
11:55 PM,21.7,16.5,80,30.01,10.0,Calm,Calm,-,N/A,,Clear,0,2012-12-24 04:55:00